Вернуться в каталог

POPACS 2

АктивенНаукаPO
NORAD 39269·PAYLOAD·🇺🇸 United States

Запущен Sep 29, 2013 с Vandenberg Space Force Base

Loading…

Ближайшие Пролёты (ближайшие 24 часа)

TLE

СвежийSource: Space-Track

Эпоха: Sep 14, 2026, 09:37 UTC

1 39269U 13055E   26257.40098080  .00010240  00000-0  17031-3 0  9996
2 39269  80.9914  41.8459 0405632 266.7735  88.7011 14.93867772676524

Отслеживайте POPACS 2 в реальном времени с AllMySat

Download on the App Store